Date String (YYYY-MM-DD hh:mm:ss) UTC,Instrument flags,absolute air pressure of the measurement (hPa),sample flow rate (lpm),inlet stack bypass flow (lpm),air temperature of the measurement (°C),ambient temperature measured by the external sensor (°C),aerosol sample conditioner tube jacket temperature (°C),OPC LED temperature (°C),internal box temperature (°C),relative humidity of the measurement (%),span deviation,mass concentration of particles derived from Lorenz-Mie calculation of OPC scattering (μg/m³),mass concentration of particles derived from Lorenz-Mie calculation of OPC scattering (μg/m³),mass concentration of particles derived from Lorenz-Mie calculation of OPC scattering (μg/m³)
DateTimeUTC,F1_M11,P_M11,Q1_M11,Q2_M11,T1_M11,T2_M11,T3_M11,T4_M11,T5_M11,U1_M11,ZSPAN_M11,X0_M11,X2_M11,X1_M11
2023-11-05 16:00:00,SystemResetWarning,0827.0,5.00,000.00,027.6,026.8,000.0,035.9,029.1,11.6,0000.0,0007.80,0005.03,0004.82
2023-11-05 16:01:00,SystemResetWarning,0827.0,5.00,000.00,027.6,026.8,000.0,035.9,029.1,11.5,0000.0,0008.15,0005.04,0004.83
2023-11-05 16:02:00,SystemResetWarning,0827.0,5.00,000.00,027.6,026.8,000.0,035.9,029.1,11.7,0000.0,0008.57,0005.08,0004.84
2023-11-05 16:03:00,SystemResetWarning,0827.0,5.00,000.00,027.6,026.8,000.0,035.9,029.1,11.8,0000.0,0008.55,0005.08,0004.82
2023-11-05 16:04:00,SystemResetWarning,0827.0,5.00,000.00,027.6,026.8,000.0,035.9,029.1,11.3,0000.0,0008.42,0005.05,0004.82
2023-11-05 16:05:00,SystemResetWarning,0827.1,5.00,000.00,027.6,026.8,000.0,035.9,029.1,11.3,0000.0,0008.39,0005.04,0004.81
2023-11-05 16:06:00,SystemResetWarning,0827.0,5.00,000.00,027.7,026.8,000.0,036.0,029.1,11.5,0000.0,0008.39,0005.02,0004.79
2023-11-05 16:07:00,SystemResetWarning,0827.1,5.01,000.00,027.7,026.8,000.0,036.0,029.1,11.6,0000.0,0008.41,0005.01,0004.79
2023-11-05 16:08:00,SystemResetWarning,0827.0,5.00,000.00,027.7,026.8,000.0,036.0,029.2,12.0,0000.0,0008.38,0005.00,0004.78
2023-11-05 16:09:00,SystemResetWarning,0827.0,5.00,000.00,027.7,026.8,000.0,036.0,029.2,11.9,0000.0,0008.36,0004.97,0004.75
2023-11-05 16:10:00,SystemResetWarning,0827.0,5.00,000.00,027.7,026.9,000.0,036.0,029.2,11.8,0000.0,0008.31,0004.93,0004.72
2023-11-05 16:11:00,SystemResetWarning,0827.1,5.00,000.00,027.7,026.9,000.0,036.0,029.2,11.9,0000.0,0008.23,0004.92,0004.69
2023-11-05 16:12:00,SystemResetWarning,0827.0,5.00,000.00,027.7,026.9,000.0,036.0,029.2,12.2,0000.0,0007.75,0004.89,0004.66
2023-11-05 16:13:00,SystemResetWarning,0827.0,5.00,000.00,027.7,026.9,000.0,036.0,029.2,12.1,0000.0,0006.99,0004.85,0004.62
2023-11-05 16:14:00,SystemResetWarning,0826.9,5.00,000.00,027.7,026.9,000.0,036.0,029.2,12.3,0000.0,0006.94,0004.81,0004.60
2023-11-05 16:15:00,SystemResetWarning,0827.0,5.00,000.00,027.7,026.9,000.0,036.0,029.2,12.1,0000.0,0006.96,0004.79,0004.57
2023-11-05 16:16:00,SystemResetWarning,0827.0,5.00,000.00,027.7,026.9,000.0,036.0,029.2,12.0,0000.0,0006.88,0004.75,0004.54
2023-11-05 16:17:00,SystemResetWarning,0827.0,5.00,000.00,027.8,026.9,000.0,036.1,029.3,11.9,0000.0,0006.83,0004.74,0004.51
2023-11-05 16:18:00,SystemResetWarning,0827.1,5.00,000.00,027.8,026.9,000.0,036.1,029.3,12.2,0000.0,0006.81,0004.71,0004.48
2023-11-05 16:19:00,SystemResetWarning,0827.0,5.00,000.00,027.8,027.0,000.0,036.1,029.3,12.5,0000.0,0007.25,0004.70,0004.45
2023-11-05 16:20:00,SystemResetWarning,0826.9,5.00,000.00,027.8,027.0,000.0,036.1,029.3,12.5,0000.0,0007.59,0004.69,0004.42
2023-11-05 16:21:00,SystemResetWarning,0826.9,5.00,000.00,027.8,027.0,000.0,036.1,029.3,12.2,0000.0,0008.02,0004.66,0004.40
2023-11-05 16:22:00,SystemResetWarning,0826.8,5.00,000.00,027.8,027.0,000.0,036.1,029.3,12.2,0000.0,0008.01,0004.64,0004.39
2023-11-05 16:23:00,SystemResetWarning,0826.8,5.00,000.00,027.8,027.0,000.0,036.1,029.3,12.4,0000.0,0008.09,0004.66,0004.37
2023-11-05 16:24:00,SystemResetWarning,0826.7,5.00,000.00,027.8,027.0,000.0,036.1,029.3,12.5,0000.0,0008.09,0004.66,0004.37
2023-11-05 16:25:00,SystemResetWarning,0826.6,5.00,000.00,027.8,027.0,000.0,036.1,029.2,12.5,0000.0,0008.13,0004.66,0004.36
2023-11-05 16:26:00,SystemResetWarning,0826.7,4.99,000.00,027.8,027.0,000.0,036.1,029.3,12.4,0000.0,0008.61,0004.68,0004.36
2023-11-05 16:27:00,SystemResetWarning,0826.8,5.00,000.00,027.8,027.0,000.0,036.1,029.3,12.5,0000.0,0009.17,0004.69,0004.36
2023-11-05 16:28:00,SystemResetWarning,0826.8,5.00,000.00,027.8,027.0,000.0,036.2,029.3,12.3,0000.0,0009.13,0004.66,0004.35
2023-11-05 16:29:00,SystemResetWarning,0826.8,5.01,000.00,027.8,027.0,000.0,036.2,029.4,11.8,0000.0,0009.09,0004.64,0004.35
2023-11-05 16:30:00,SystemResetWarning,0826.6,5.01,000.00,027.9,027.1,000.0,036.2,029.4,11.7,0000.0,0008.80,0004.62,0004.35
2023-11-05 16:31:00,SystemResetWarning,0826.6,5.00,000.00,027.9,027.1,000.0,036.2,029.4,12.0,0000.0,0008.53,0004.64,0004.35
2023-11-05 16:32:00,SystemResetWarning,0826.6,4.99,000.00,027.9,027.1,000.0,036.2,029.4,12.2,0000.0,0008.16,0004.66,0004.36
2023-11-05 16:33:00,SystemResetWarning,0826.6,4.99,000.00,027.9,027.1,000.0,036.2,029.4,12.2,0000.0,0008.18,0004.66,0004.36
2023-11-05 16:34:00,SystemResetWarning,0826.6,4.99,000.00,027.9,027.1,000.0,036.2,029.3,12.5,0000.0,0008.29,0004.66,0004.36
2023-11-05 16:35:00,SystemResetWarning,0826.6,5.00,000.00,027.9,027.1,000.0,036.2,029.4,12.8,0000.0,0008.33,0004.65,0004.36
2023-11-05 16:36:00,SystemResetWarning,0826.6,5.01,000.00,027.9,027.1,000.0,036.2,029.4,12.8,0000.0,0008.28,0004.63,0004.34
2023-11-05 16:37:00,SystemResetWarning,0826.6,5.00,000.00,027.9,027.1,000.0,036.2,029.4,12.5,0000.0,0007.89,0004.63,0004.33
2023-11-05 16:38:00,SystemResetWarning,0826.4,5.01,000.00,027.9,027.1,000.0,036.3,029.4,12.4,0000.0,0007.59,0004.63,0004.32
2023-11-05 16:39:00,SystemResetWarning,0826.4,5.00,000.00,028.0,027.2,000.0,036.3,029.4,11.8,0000.0,0007.85,0004.64,0004.32
2023-11-05 16:40:00,SystemResetWarning,0826.6,4.99,000.00,028.0,027.2,000.0,036.3,029.4,12.0,0000.0,0007.94,0004.64,0004.32
2023-11-05 16:41:00,SystemResetWarning,0826.7,5.00,000.00,028.0,027.2,000.0,036.3,029.5,12.3,0000.0,0008.20,0004.67,0004.31
2023-11-05 16:42:00,SystemResetWarning,0826.6,5.00,000.00,028.0,027.2,000.0,036.3,029.5,12.1,0000.0,0008.26,0004.67,0004.30
2023-11-05 16:43:00,SystemResetWarning,0826.6,5.00,000.00,028.0,027.2,000.0,036.3,029.5,12.2,0000.0,0008.25,0004.66,0004.28
2023-11-05 16:44:00,SystemResetWarning,0826.6,5.00,000.00,028.0,027.2,000.0,036.3,029.5,12.0,0000.0,0008.26,0004.66,0004.27
2023-11-05 16:45:00,SystemResetWarning,0826.6,5.00,000.00,028.1,027.3,000.0,036.3,029.5,11.9,0000.0,0008.23,0004.64,0004.27
2023-11-05 16:46:00,SystemResetWarning,0826.6,5.00,000.00,028.1,027.3,000.0,036.3,029.5,11.9,0000.0,0008.09,0004.62,0004.26
2023-11-05 16:47:00,SystemResetWarning,0826.6,5.01,000.00,028.1,027.3,000.0,036.3,029.6,12.0,0000.0,0008.04,0004.61,0004.26
2023-11-05 16:48:00,SystemResetWarning,0826.6,5.00,000.00,028.1,027.3,000.0,036.4,029.6,12.1,0000.0,0008.19,0004.59,0004.26
2023-11-05 16:49:00,SystemResetWarning,0826.6,5.00,000.00,028.1,027.3,000.0,036.4,029.6,12.1,0000.0,0008.64,0004.59,0004.25
2023-11-05 16:50:00,SystemResetWarning,0826.6,5.00,000.00,028.1,027.4,000.0,036.4,029.6,12.3,0000.0,0008.24,0004.55,0004.23
2023-11-05 16:51:00,SystemResetWarning,0826.6,5.00,000.00,028.2,027.4,000.0,036.4,029.6,12.4,0000.0,0008.16,0004.54,0004.21
2023-11-05 16:52:00,SystemResetWarning,0826.6,5.00,000.00,028.2,027.4,000.0,036.4,029.6,12.6,0000.0,0007.99,0004.53,0004.18
2023-11-05 16:53:00,SystemResetWarning,0826.8,5.00,000.00,028.2,027.4,000.0,036.4,029.7,12.8,0000.0,0007.93,0004.50,0004.17
2023-11-05 16:54:00,SystemResetWarning,0826.8,5.00,000.00,028.2,027.4,000.0,036.4,029.7,13.2,0000.0,0007.99,0004.47,0004.16
2023-11-05 16:55:00,SystemResetWarning,0826.8,4.99,000.00,028.2,027.5,000.0,036.5,029.7,13.3,0000.0,0008.00,0004.44,0004.13
2023-11-05 16:56:00,SystemResetWarning,0826.8,5.00,000.00,028.2,027.5,000.0,036.5,029.7,13.2,0000.0,0008.22,0004.44,0004.11
2023-11-05 16:57:00,SystemResetWarning,0826.8,5.00,000.00,028.3,027.5,000.0,036.5,029.7,13.2,0000.0,0008.32,0004.43,0004.07
2023-11-05 16:58:00,SystemResetWarning,0826.7,5.00,000.00,028.3,027.5,000.0,036.5,029.8,13.1,0000.0,0008.65,0004.42,0004.05
2023-11-05 16:59:00,SystemResetWarning,0826.6,5.00,000.00,028.3,027.5,000.0,036.5,029.8,12.9,0000.0,0009.09,0004.42,0004.03
